This is the latest recevied weather packets stored in our database for station/object KC5AV. If no packets are shown the sender has not sent any weather packets the latest 10 day(s).
| Time | Temp. | Humidity | Pressure | Rain* | Wind** | Luminosity | Snow |
|---|---|---|---|---|---|---|---|
| 1787407425 | 30.56° C | 63% | 1018.3 hPa | 0 mm | - | 303 W/m² | - |
| 1787407120 | 30.56° C | 64% | 1018 hPa | 0 mm | - | 195 W/m² | - |
| 1787406816 | 30° C | 64% | 1017.9 hPa | 0 mm | - | 99 W/m² | - |
| 1787406516 | 30° C | 68% | 1018 hPa | 0 mm | - | 92 W/m² | - |
| 1787406212 | 29.44° C | 68% | 1018 hPa | 0 mm | - | 84 W/m² | - |
| 1787405903 | 28.89° C | 69% | 1018 hPa | 0 mm | - | 74 W/m² | - |
| 1787405600 | 28.89° C | 70% | 1017.7 hPa | 0 mm | - | 72 W/m² | - |
| 1787405299 | 28.33° C | 71% | 1017.8 hPa | 0 mm | - | 70 W/m² | - |
| 1787404996 | 28.33° C | 72% | 1017.9 hPa | 0 mm | - | 70 W/m² | - |
| 1787404690 | 27.78° C | 73% | 1017.8 hPa | 0 mm | - | 68 W/m² | - |
| 1787404390 | 27.22° C | 74% | 1017.7 hPa | 0 mm | - | 67 W/m² | - |
| 1787404086 | 26.67° C | 76% | 1017.8 hPa | 0 mm | - | 66 W/m² | - |
| 1787403781 | 26.11° C | 78% | 1017.6 hPa | 0 mm | - | 64 W/m² | - |
| 1787403480 | 25.56° C | 81% | 1017.7 hPa | 0 mm | - | 61 W/m² | - |
| 1787403176 | 25° C | 82% | 1017.5 hPa | 0 mm | - | 58 W/m² | - |
| 1787402872 | 25° C | 84% | 1017.6 hPa | 0 mm | - | 53 W/m² | - |
| 1787402567 | 24.44° C | 84% | 1017.5 hPa | 0 mm | - | 48 W/m² | - |
| 1787402267 | 24.44° C | 84% | 1017.5 hPa | 0 mm | - | 42 W/m² | - |
| 1787401962 | 23.89° C | 84% | 1017.5 hPa | 0 mm | - | 33 W/m² | - |
| 1787401657 | 23.89° C | 84% | 1017.4 hPa | 0 mm | - | 28 W/m² | - |
| 1787401353 | 23.89° C | 84% | 1017.3 hPa | 0 mm | - | 23 W/m² | - |
| 1787401048 | 23.89° C | 85% | 1017.2 hPa | 0 mm | - | 18 W/m² | - |
| 1787400744 | 23.89° C | 84% | 1017.2 hPa | 0 mm | - | 15 W/m² | - |
| 1787400443 | 23.89° C | 84% | 1017.1 hPa | 0 mm | - | 13 W/m² | - |
| 1787400139 | 23.89° C | 84% | 1017.3 hPa | 0 mm | - | 10 W/m² | - |
* Rain latest hour (hover to see other rain measurements)
** Current wind speed in m/s (hover to see current wind gust speed)